Weather History for KOMA - November, 2011

Change the Weather History Date:

Monday, November 28, 2011

  Actual Average Record
Temperature  
Mean Temperature 33 °F 32 °F  
Max Temperature 45 °F 42 °F 65 °F (2006)
Min Temperature 20 °F 23 °F -4 °F (1976)
Degree Days  
Heating Degree Days 32 33  
Month to date heating degree days 636 718  
Since 1 July heating degree days 1033 1203  
Cooling Degree Days 0 0  
Month to date cooling degree days 0 0  
Year to date cooling degree days 1378 1112  
Moisture  
Dew Point 22 °F    
Average Humidity 67    
Maximum Humidity 88    
Minimum Humidity 45    
Precipitation  
Precipitation 0.00 in 0.05 in 0.47 in (1971)
Month to date precipitation 1.31 1.55  
Year to date precipitation 26.99 29.49  
Snow  
Snow 0.00 in 0.20 in - ()
Month to date snowfall 1.3 2.2  
Since 1 July snowfall 1.3 2.5  
Snow Depth 0.00 in    
Sea Level Pressure  
Sea Level Pressure 30.16 in    
Wind  
Wind Speed 7 mph (SSE)    
Max Wind Speed 17 mph    
Max Gust Speed 22 mph    
Visibility 10 miles    
Events      
T = Trace of Precipitation, MM = Missing Value Source: NWS Daily Summary

Daily Weather History Graph

Daily Weather History Graph

Search for Another Location

Airport or City:

Trip Planner

Search our weather history database for the weather conditions in past years. The results will help you decide how hot, cold, wet, or windy it might be!

Date:

Astronomy

Nov. 28, 2011 Rise Set
Actual Time 7:26 AM CST 4:56 PM CST
Civil Twilight 6:56 AM CST 5:26 PM CST
Nautical Twilight 6:21 AM CST 6:00 PM CST
Astronomical Twilight 5:48 AM CST 6:34 PM CST
Moon 10:36 AM CST (11/28) 8:44 PM CST (11/28)
Length of Visible Light 10h 30m
Length of Day
9h 29m
Waxing Crescent, 16% of the Moon is Illuminated
Nov 28
Waxing Crescent
Dec 2
First Quarter
Dec 10
Full
Dec 17
Last Quarter
Dec 24
New

Hourly Weather History & Observations

Time (CST) Temp. Windchill Dew Point Humidity Pressure Visibility Wind Dir Wind Speed Gust Speed Precip Events Conditions
12:52 AM 24.1 °F 16.0 °F 18.0 °F 77% 30.24 in 10.0 mi ESE 6.9 mph - N/A   Clear
1:52 AM 25.0 °F 19.3 °F 19.0 °F 78% 30.22 in 10.0 mi SSE 4.6 mph - N/A   Clear
2:52 AM 23.0 °F 18.4 °F 17.1 °F 78% 30.21 in 10.0 mi South 3.5 mph - N/A   Clear
3:52 AM 23.0 °F 18.4 °F 17.1 °F 78% 30.19 in 10.0 mi SE 3.5 mph - N/A   Clear
4:52 AM 21.9 °F 13.4 °F 18.0 °F 85% 30.20 in 10.0 mi SE 6.9 mph - N/A   Clear
5:52 AM 21.0 °F 12.4 °F 18.0 °F 88% 30.20 in 10.0 mi SSE 6.9 mph - N/A   Clear
6:52 AM 23.0 °F 17.0 °F 19.0 °F 85% 30.19 in 10.0 mi South 4.6 mph - N/A   Clear
7:52 AM 23.0 °F 13.1 °F 19.0 °F 85% 30.17 in 10.0 mi SSE 9.2 mph - N/A   Partly Cloudy
8:52 AM 26.1 °F 17.6 °F 21.0 °F 81% 30.19 in 10.0 mi SSE 8.1 mph - N/A   Partly Cloudy
9:52 AM 30.0 °F 20.0 °F 23.0 °F 75% 30.17 in 10.0 mi SSE 12.7 mph - N/A   Partly Cloudy
10:52 AM 34.0 °F 25.0 °F 24.1 °F 67% 30.17 in 10.0 mi South 12.7 mph - N/A   Scattered Clouds
11:52 AM 37.9 °F 32.1 °F 24.1 °F 57% 30.14 in 10.0 mi South 8.1 mph - N/A   Scattered Clouds
12:52 PM 39.9 °F 34.5 °F 24.1 °F 53% 30.11 in 10.0 mi South 8.1 mph - N/A   Scattered Clouds
1:52 PM 42.1 °F 39.2 °F 25.0 °F 51% 30.11 in 10.0 mi South 4.6 mph - N/A   Scattered Clouds
2:52 PM 44.1 °F 41.5 °F 24.1 °F 45% 30.11 in 10.0 mi ESE 4.6 mph - N/A   Scattered Clouds
3:52 PM 45.0 °F - 24.1 °F 44% 30.10 in 10.0 mi Calm Calm - N/A   Scattered Clouds
4:52 PM 42.1 °F - 24.1 °F 49% 30.12 in 10.0 mi Calm Calm - N/A   Partly Cloudy
5:52 PM 37.9 °F - 25.0 °F 60% 30.14 in 10.0 mi Calm Calm - N/A   Partly Cloudy
6:52 PM 32.0 °F 26.4 °F 26.6 °F 80% 30.11 in 10.0 mi NW 5.8 mph - N/A   Clear
7:52 PM 30.0 °F 24.1 °F 24.1 °F 79% 30.16 in 10.0 mi NNW 5.8 mph - N/A   Clear
8:52 PM 28.9 °F 21.9 °F 23.0 °F 78% 30.17 in 10.0 mi NNW 6.9 mph - N/A   Clear
9:52 PM 34.0 °F 25.5 °F 21.9 °F 61% 30.17 in 10.0 mi North 11.5 mph - N/A   Scattered Clouds
10:52 PM 36.0 °F 26.7 °F 21.9 °F 57% 30.18 in 10.0 mi North 15.0 mph - N/A   Partly Cloudy
11:52 PM 39.0 °F 30.6 °F 25.0 °F 57% 30.19 in 10.0 mi North 15.0 mph - N/A   Clear